Location: Edinburgh
(55.9500°N, 3.1600°W)
Time: 00:31:13
(UTC+01:00)

AO-91 - Pass Details

Date: 02 June 2024
Orbit: 442 x 732 km, 97.6° (Epoch: 21 June)

Event Time Altitude Azimuth Distance (km) Brightness Sun altitude
Rises 00:55:20 0° 6° (N) 2,958 ? -11.8°
Reaches altitude 10° 00:58:10 10° 346° (NNW) 2,097 ? -11.8°
Maximum altitude 01:01:04 17° 307° (NW) 1,727 ? -11.8°
Drops below altitude 10° 01:04:03 10° 268° (W) 2,178 ? -11.8°
Sets 01:07:05 0° 249° (WSW) 3,126 ? -11.8°
